Probability
0 0 0 0 0 0 0 0 0 0 0 0 0 0 0 0 0 0 0 0 0 0 0 0 0 0 0 0 0 0 0 0 0 0 0 0 0 0 0 0 0 0 0 0
0 0 0 0 0 0 0 0 0 0 0 0 0 0 0 0 0 0 0 0 0 0 0 0 0 0 0 0 0 0 0 0 0 0 0 0 0 0 0 0 0 0 0 0
0 0 0 0 0 0 0 0 0 0 0 0 0 0 0 0 0 0 0 0 0 0 0 0 0 0 0 0 0 0 0 0 0 0 0 0 0 0 0 0 0 0 0 0
0 0 0 0 0 0 0 0 0 0 0 0 0 0 0 0 0 0 0 0 0 0 0 0 0 0 0 0 0 0 0 0 0 0 0 0 0 0 0 0 0 0 0 0
0 0 0 0 0 0 0 0 0 0 0 0 0 0 0 0 0 0 0 0 0 0 0 0 0 0 0 0 0 0 0 0 0 0 0 0 0 0 0 0 0 0 0 0
0 0 0 0 0 0 0 0 0 0 0 0 0 0 0 0 0 0 0 0 0 0 0 0 0 0 0 0 0 0 0 0 0 0 0 0 0 0 0 0 0 0 0 0
0 0 0 0 0 0 0 0 0 0 0 0 0 0 0 0 0 0 0 0 0 0 0 0 0 0 0 0 0 0 0 0 0 0 0 0 0 0 0 0 0 0 0 0
0 0 0 0 0 0 0 0 0 0 0 0 0 0 0 0 0 0 0 0 0 0 0 0 0 0 0 0 0 0 0 0 0 0 0 0 0 0 0 0 0 0 0 0
0 0 0 0 0 0 0 0 0 0 0 0 0 0 0 0 0 0 0 0 0 0 0 0 0 0 0 0 0 0 0 0 0 0 0 0 0 0 0 0 0 0 0 0
0 0 0 0 0 0 0 0 0 0 0 0 0 0 0 0 0 0 0 0 0 0 0 0 0 0 0 0 0 0 0 0 0 0 0 0 0 0 0 0 0 0 0 0
0 0 0 0 0 0 0 0 0 0 0 0 0 0 0 0 0 0 0 0 0 0 0 0 0 0 0 0 0 0 0 0 0 0 0 0 0 0 0 0 0 0 0 0
0 0 0 0 0 0 0 0 0 0 0 0 0 0 0 0 0 0 0 0 0 0 0 0 0 0 0 0 0 0 0 0 0 0 0 0 0 0 0 0 0 0 0 0
0 0 0 0 0 0 0 0 0 0 0 0 0 0 0 0 0 0 0 0 0 0 0 0 0 0 0 0 0 0 0 0 0 0 0 0 0 0 0 0 0 0 0 0
0 0 0 0 0 0 0 0 0 0 0 0 0 0 0 0 0 0 0 0 0 0 0 0 0 0 0 0 0 0 0 0 0 0 0 0 0 0 0 0 0 0 0 0
0 0 0 0 0 0 0 0 0 0 0 0 0 0 0 0 0 0 0 0 0 0 0 0 0 0 0 0 0 0 0 0 0 0 0 0 0 0 0 0 0 0 0 0
0 0 0 0 0 0 0 0 0 0 0 0 0 0 0 0 0 0 0 0 0 0 0 0 0 0 0 0 0 0 0 0 0 0 0 0 0 0 0 0 0 0 0 0
0 0 0 0 0 0 0 0 0 0 0 0 0 0 0 0 0 0 0 0 0 0 0 0 0 0 0 0 0 0 0 0 0 0 0 0 0 0 0 0 0 0 0 0
0 0 0 0 0 0 0 0 0 0 0 0 0 0 0 0 0 0 0 0 0 0 0 0 0 0 0 0 0 0 0 0 0 0 0 0 0 0 0 0 0 0 0 0
0 0 0 0 0 0 0 0 0 0 0 0 0 0 0 0 0 0 0 0 0 0 0 0 0 0 0 0 0 0 0 0 0 0 0 0 0 0 0 0 0 0 0 0
0 0 0 0 0 0 0 0 0 0 0 0 0 0 0 0 0 0 0 0 0 0 0 0 0 0 0 0 0 0 0 0 0 0 0 0 0 0 0 0 0 0 0 0
0 0 0 0 0 0 0 0 0 0 0 0 0 0 0 0 0 0 0 0 0 0 0 0 0 0 0 0 0 0 0 0 0 0 0 0 0 0 0 0 0 0 0 0
0 0 0 0 0 0 0 0 0 0 0 0 0 0 0 0 0 0 0 0 0 0 0 0 0 0 0 0 0 0 0 0 0 0 0 0 0 0 0 0 0 0 0 0
0 0 0 0 0 0 0 0 0 0 0 0 0 0 0 0 0 0 0 0 0 0 0 0 0 0 0 0 0 0 0 0 0 0 0 0 0 0 0 0 0 0 0 0
0 0 0 0 0 0 0 0 0 0 0 0 0 0 0 0 0 0 0 0 0 0 0 0 0 0 0 0 0 0 0 0 0 0 0 0 0 0 0 0 0 0 0 0
0 0 0 0 0 0 0 0 0 0 0 0 0 0 0 0 0 0 0 0 0 0 0 0 0 0 0 0 0 0 0 0 0 0 0 0 0 0 0 0 0 0 0 0
0 0 0 0 0 0 0 0 0 0 0 0 0 0 0 0 0 0 0 0 0 0 0 0 0 0 0 0 0 0 0 0 0 0 0 0 0 0 0 0 0 0 0 0
0 0 0 0 0 0 0 0 0 0 0 0 0 0 0 0 0 0 0 0 0 0 0 0 0 0 0 0 0 0 0 0 0 0 0 0 0 0 0 0 0 0 0 0
Wind_Speed
6 7 6 6 7 6 7 8 8 8 9 9 6 4 4 3 2 2 1 1 1 1 1 1 1 1 1 1 1 1 2 2 2 2 2 2 2 2 2 2 2 2 2 2
6 7 7 9 9 9 9 9 11 11 12 7 6 4 4 4 3 3 3 2 2 2 1 1 1 1 1 1 1 1 2 2 2 2 2 2 2 1 1 2 2 2 2 2
5 4 4 8 8 9 7 7 6 9 10 6 5 5 4 4 3 4 4 3 2 2 2 2 2 1 1 1 1 1 1 1 2 2 2 2 2 2 2 2 2 2 2 2
3 3 7 7 2 4 6 8 7 7 7 5 5 5 3 2 3 4 3 3 3 2 2 2 1 1 0 0 1 1 1 1 1 2 2 2 2 2 2 2 2 2 2 2
2 4 7 5 3 1 3 6 5 6 7 5 4 4 3 2 2 3 3 3 3 2 2 1 1 0 0 0 0 1 1 1 1 2 2 2 2 2 2 1 1 2 2 2
4 4 6 4 1 1 1 5 3 3 6 5 3 4 4 3 3 3 3 2 2 2 1 1 1 1 1 0 0 1 1 2 1 2 2 3 3 2 1 1 1 1 1 1
7 6 6 3 2 1 2 5 3 3 4 3 3 4 4 4 4 3 3 3 2 2 2 1 1 1 0 0 1 1 1 1 1 2 2 2 1 1 1 1 1 1 1 1
5 6 8 1 2 3 5 3 3 4 4 4 4 3 2 2 3 3 3 3 2 2 2 2 1 1 1 1 2 2 1 1 1 1 2 1 2 1 2 2 2 1 1 1
6 7 3 2 3 2 2 3 4 4 4 4 4 4 3 2 3 3 3 3 2 1 2 2 1 0 1 2 1 2 1 1 1 1 1 1 2 2 2 2 2 2 1 2
5 6 4 3 3 4 4 4 4 4 4 4 5 4 3 3 3 3 3 3 2 2 2 3 2 2 2 2 1 1 1 1 1 1 1 1 1 2 2 2 2 2 2 2
6 6 5 4 3 4 5 5 5 4 4 4 4 4 3 3 3 3 3 2 2 2 2 3 3 2 2 1 1 1 2 2 2 2 2 1 1 1 2 2 3 3 3 2
7 4 4 4 3 4 4 5 5 5 5 4 3 4 3 3 3 3 3 2 2 3 3 3 3 3 3 2 1 2 2 2 2 1 1 1 1 1 2 3 4 5 4 3
6 5 5 5 4 4 4 5 5 4 5 5 4 3 3 3 3 3 3 3 3 3 3 3 3 3 3 2 2 2 3 2 2 1 2 2 2 2 1 1 2 3 3 4
4 4 5 4 4 4 4 5 4 4 4 4 3 3 3 3 3 3 3 3 3 3 3 3 2 3 3 2 2 2 2 3 2 2 2 2 2 2 2 2 1 1 2 4
4 4 5 4 4 4 3 4 4 4 4 4 3 2 3 3 3 4 3 3 3 3 3 2 2 3 2 2 2 2 2 2 2 1 1 2 2 2 1 2 2 1 1 1
4 4 4 4 5 4 4 4 5 5 5 4 3 3 3 3 3 4 3 2 2 3 3 3 3 3 2 1 2 2 2 2 1 1 1 1 1 1 1 1 1 1 1 1
3 4 4 4 5 5 4 4 5 5 4 4 4 3 3 3 3 3 3 3 3 3 3 3 3 3 2 1 1 1 1 1 1 1 1 1 1 1 1 1 1 1 1 1
4 5 4 4 4 5 5 4 4 5 4 4 4 3 3 3 4 4 4 3 2 3 3 2 2 2 1 1 1 1 1 1 0 0 0 0 0 1 1 1 1 1 1 1
2 3 3 4 4 4 4 4 4 4 4 3 3 4 4 4 4 4 3 3 2 3 3 2 3 1 1 1 1 0 0 0 0 0 0 0 0 0 0 1 1 1 1 0
2 2 3 3 3 3 4 4 4 4 3 3 3 3 4 4 3 3 3 3 3 2 2 2 1 1 1 1 0 0 0 1 1 0 0 0 0 0 0 0 0 0 0 1
3 3 3 3 4 4 3 3 3 4 4 3 3 4 4 3 3 2 2 3 2 2 2 2 1 0 0 0 0 0 1 1 1 1 1 1 1 1 0 0 0 0 0 0
3 3 3 3 4 4 3 3 3 3 3 3 3 3 3 3 3 3 3 3 3 3 2 1 1 1 0 1 1 1 1 1 1 1 1 1 1 0 0 1 0 0 0 0
3 3 3 3 3 4 4 3 3 3 3 3 3 3 3 3 3 2 2 2 2 2 1 0 1 0 1 1 1 1 1 1 1 1 1 1 1 0 0 0 1 1 1 1
2 3 3 3 2 3 3 3 3 2 3 3 2 2 2 2 2 2 2 2 2 2 0 1 0 0 1 1 1 1 1 1 1 1 1 1 1 1 1 1 1 1 1 1
2 2 2 2 2 2 3 3 2 2 2 1 2 2 1 1 2 2 1 1 1 0 0 0 1 2 1 1 1 1 1 1 1 1 1 1 1 1 1 1 1 1 1 1
2 2 2 2 2 2 2 1 2 2 2 2 1 1 1 1 1 1 0 0 0 1 1 1 1 2 1 1 1 1 2 2 2 1 1 1 1 1 1 1 1 1 1 1
1 1 1 2 2 1 1 1 1 1 1 1 1 1 1 1 1 1 1 1 1 1 1 1 1 1 1 1 2 2 2 2 1 1 1 1 1 1 1 1 1 1 1 1
Wind_Direction
270 285 284 272 262 246 234 237 242 256 263 272 289 296 310 321 328 342 334 323 291 256 259 245 233 228 201 206 185 184 173 179 192 182 177 180 185 182 179 183 189 188 196 206
269 265 269 273 263 251 249 251 254 265 271 275 291 309 315 315 321 326 314 292 278 261 254 247 240 241 230 207 201 184 178 189 185 173 173 178 184 186 181 190 189 188 199 201
264 268 289 267 247 233 235 235 242 253 266 294 302 306 299 302 311 315 321 319 305 283 267 259 254 243 224 215 202 182 180 177 173 176 178 184 188 187 196 202 194 204 212 209
270 282 248 248 259 228 229 250 248 257 271 280 283 293 299 313 317 313 316 317 303 297 297 294 286 290 217 134 158 177 175 182 181 169 169 176 185 197 204 202 193 196 200 200
240 253 267 266 265 218 229 269 260 260 275 284 296 303 287 309 315 302 301 294 288 286 283 295 315 356 80 112 148 168 196 215 213 187 175 180 198 204 196 183 196 190 180 184
235 244 253 260 272 261 214 268 275 266 281 287 301 289 282 332 336 323 323 318 313 314 332 349 341 33 96 155 166 212 223 230 221 199 189 197 205 203 184 179 200 185 176 187
233 244 260 264 243 136 205 256 312 309 295 295 267 260 283 324 336 336 338 337 345 354 351 334 10 51 41 311 274 267 238 234 218 202 200 201 193 190 176 187 182 180 188 217
216 232 250 221 165 203 239 288 308 311 305 295 285 288 301 322 328 333 336 342 352 351 335 340 22 60 313 292 303 320 289 231 232 217 212 190 176 193 186 182 180 192 197 239
212 227 249 187 226 259 300 299 303 306 308 299 291 288 297 305 313 316 321 324 329 324 325 330 338 326 268 289 319 319 284 251 244 234 224 195 186 194 191 185 186 199 201 225
262 264 275 272 289 307 306 295 300 301 300 296 289 287 292 296 302 313 319 320 323 326 321 313 314 305 272 285 297 295 267 259 250 231 225 215 201 191 189 190 195 206 213 222
261 272 288 277 286 297 302 301 300 299 294 287 288 286 284 291 296 298 300 304 306 293 291 293 302 303 304 296 277 281 272 259 247 237 225 215 204 207 209 207 204 209 216 212
250 261 259 277 298 297 292 294 293 293 293 287 276 279 286 282 280 286 293 297 301 298 295 295 301 301 302 302 271 263 267 257 244 230 220 204 198 242 251 236 230 226 223 221
256 277 271 281 299 306 301 302 300 296 291 294 292 286 284 279 278 278 282 287 284 284 283 285 288 290 293 292 272 255 253 247 241 229 221 210 202 203 228 272 245 235 229 231
271 284 281 280 288 304 306 306 302 300 294 290 291 291 286 283 283 281 279 281 281 282 284 284 287 290 293 290 277 266 256 239 235 235 226 221 216 212 205 209 231 262 246 240
272 263 263 284 294 297 301 310 311 302 301 300 293 287 288 287 288 289 286 286 284 282 284 285 287 290 294 290 279 269 261 245 230 226 226 225 221 212 206 212 223 241 270 259
285 288 282 281 285 292 301 302 295 293 297 298 298 293 288 284 287 293 296 291 279 280 284 286 286 288 293 288 288 280 270 259 245 217 221 226 218 214 214 214 219 225 231 239
266 276 278 284 288 292 288 285 285 289 292 290 291 296 298 297 295 296 300 295 282 278 278 277 285 295 292 269 260 266 266 249 234 225 222 222 217 222 220 211 215 224 232 222
246 253 258 263 273 283 287 289 290 290 285 282 286 287 285 283 284 290 296 304 311 304 293 283 286 290 281 272 259 256 233 230 221 202 213 224 227 227 198 197 203 209 224 225
273 264 268 269 269 274 280 284 285 285 286 283 279 278 276 277 278 285 293 295 290 294 297 295 304 321 306 298 319 237 192 170 132 94 116 204 84 60 149 183 187 186 192 208
301 301 291 285 283 277 279 284 287 287 283 276 278 279 281 282 282 282 283 276 270 271 282 289 295 297 297 287 327 85 136 141 139 130 110 108 100 78 68 105 145 180 202 220
296 299 295 292 292 286 277 276 278 280 282 272 267 270 276 283 282 272 268 278 288 286 282 286 290 257 226 204 153 127 134 130 127 126 119 116 95 81 72 71 84 124 223 258
289 289 287 287 290 292 288 282 275 276 279 276 274 272 275 280 279 273 258 255 269 292 304 278 271 242 161 120 133 131 125 118 107 96 92 88 79 66 59 44 30 9 357 305
288 286 286 287 287 290 295 290 281 275 270 268 265 260 259 266 259 252 269 256 254 286 313 255 236 177 101 100 110 117 116 111 105 103 98 86 73 61 55 35 21 22 8 346
293 294 294 297 299 298 298 298 293 284 277 275 267 260 261 277 279 257 244 262 282 304 310 243 224 128 96 96 106 101 97 98 98 95 87 76 61 51 45 40 24 11 5 350
293 292 293 301 297 289 289 301 310 311 312 308 305 300 283 262 264 269 253 233 248 312 60 126 88 75 74 87 100 100 93 93 93 88 78 69 51 38 26 21 14 354 345 333
295 289 281 276 275 285 296 301 304 310 318 324 331 335 337 340 333 316 268 158 111 68 67 66 68 66 65 76 86 83 78 73 63 59 57 52 43 32 13 5 360 339 326 324
302 300 304 314 311 304 296 289 289 298 303 307 319 338 353 9 22 30 46 59 64 64 66 63 63 64 65 69 71 68 67 65 63 56 47 37 26 8 349 338 328 325 323 315